Flag for Czech Republic Weather past 2 weeks in Plzen, Czech Republic

Now
72 °F

Partly sunny.


Feels Like: 77 °F
Forecast: 50 / 78 °F
Wind: N/A

Location: Kocelovice

Current Time: Jul 24, 2014 at 1:29:23 PM

Latest Report: Jul 24, 2014 at 12:00 PM


Visibility: 17 mi

Pressure: 29.88 "Hg

Humidity: 50%

Dew point: 52 °F

Location of PlzenLocation

Historic Weather in Plzen — Graph

°F

Plzen temperature yesterday

Maximum temperature yesterday: 78 °F (at 6:00 PM)
Minimum temperature yesterday: 60 °F (at 11:00 PM)
Average temperature yesterday: 68 °F

Past Weeks' High & Low Weather Summary

 TemperatureHumidityPressure
High88 °F (Jul 20, 5:00 PM)100% (Jul 11, 2:00 AM)30.17 "Hg (Jul 11, 2:00 AM)
Low49 °F (Jul 11, 5:00 AM)29% (Jul 19, 6:00 PM)29.70 "Hg (Jul 21, 4:00 PM)
Average66 °F73%29.93 "Hg
* Reported Jul 9 3:00 PM — Jul 24 12:00 Noon, Plzen, Weather by CustomWeather, © 2014

Note: Actual official high and low records may vary slightly from our data, if they occured in-between our weather recording intervals... More about our weather records

Advertising

Plzen weather history for previous 24 hours

 ConditionsComfort  
Time TempWeatherWind HumidityBarometerVisibility
12:00 PM
Jul 24
72 °FPartly sunny.N/A50%29.88 "Hg17 mi
11:00 AM69 °FPartly sunny.3 mph54%29.89 "Hg16 mi
10:00 AM66 °FPassing clouds.N/A60%29.90 "Hg15 mi
9:00 AM64 °FPassing clouds.N/A65%29.92 "Hg14 mi
8:00 AM60 °FPassing clouds.1 mph77%29.93 "Hg14 mi
7:00 AM56 °FCool.N/A86%29.95 "Hg12 mi
6:00 AM56 °FCool.2 mph79%29.95 "Hg12 mi
5:00 AM56 °FCool.1 mph81%29.95 "Hg12 mi
4:00 AM58 °FCool.N/A75%29.95 "Hg12 mi
3:00 AM56 °FCool.3 mph78%29.96 "Hg12 mi
2:00 AM56 °FCool.2 mph82%29.97 "Hg12 mi
1:00 AM58 °FCool.N/A74%29.96 "Hg12 mi
12:00 AM60 °FCool.N/A69%29.97 "Hg12 mi
11:00 PM
Jul 23
60 °FCool.5 mph70%29.98 "Hg12 mi
10:00 PM63 °FPassing clouds.3 mph66%29.97 "Hg31 mi
9:00 PM67 °FPassing clouds.3 mph59%29.93 "Hg31 mi
8:00 PM71 °FPartly sunny.3 mph48%29.92 "Hg37 mi
7:00 PM74 °FPartly sunny.8 mph40%29.90 "Hg37 mi
6:00 PM78 °FScattered clouds.6 mph35%29.89 "Hg37 mi
5:00 PM76 °FThunderstorms. Scattered clouds.5 mph36%29.90 "Hg37 mi
4:00 PM74 °FThunderstorms. Scattered clouds.9 mph43%29.91 "Hg31 mi
2:00 PM77 °FThunderstorms. Scattered clouds.8 mph37%29.92 "Hg12 mi
Weather by CustomWeather, © 2014

See weather overviewHow to use our weather pages